Regional Weather Roundup
Issued by NWS

Home | Current Version | Previous Version | Text Only | Print | Product List | Glossary On
Versions: 1 2 3 4 5 6 7 8 9 10 11 12 13 14 15 16 17 18 19 20 21 22 23 24 25 26 27 28 29 30 31 32 33 34 35 36 37 38 39 40 41 42 43 44 45 46 47 48 49 50
000
ASCA44 KEWX 241720
RWRMX

LATIN AMERICA AND CARIBBEAN REGIONAL WEATHER ROUNDUP
NATIONAL WEATHER SERVICE AUSTIN/SAN ANTONIO TX
1100 AM CST FRI NOV 24 2017

NOTE: "FAIR" INDICATED FEW OR NO CLOUDS BELOW 12,000 FEET WITH NO
SIGNIFICANT WEATHER AND/OR OBSTRUCTIONS TO VISIBILITY.

BAJA CALIFORNIA

CITY           SKY/WX    TMP DP  RH WIND       PRES   REMARKS
LORETO         SUNNY     73  68  83 CALM      29.92
LA PAZ         SUNNY     79  45  29 S7        29.96S
TIJUANA        MOSUNNY   77  36  22 CALM      29.97

NORTHWESTERN MEXICO

CITY           SKY/WX    TMP DP  RH WIND       PRES   REMARKS
CULIACAN       SUNNY     79  55  44 CALM      29.94R
DURANGO        SUNNY     54  18  24 SW3       30.29F
GUAYMAS        SUNNY     72  57  60 CALM      29.90R
HERMOSILLO     MOSUNNY   79  34  19 SE6       29.97R
CD. JUAREZ     SUNNY     61  25  25 SW12      30.13F
LOS MOCHIS     SUNNY     75  43  31 E6        29.95R
OBREGON        SUNNY     79  32  18 SE5       29.91S

NORTHEASTERN MEXICO

CITY           SKY/WX    TMP DP  RH WIND       PRES   REMARKS
CHIHUAHUA      SUNNY     63  28  27 CALM      30.17F
MATAMOROS      SUNNY     73  54  49 S8        30.05F
MONCLOVA       SUNNY     75  34  22 CALM      30.03F
MONTERREY      SUNNY     72  34  25 W7        30.02F
SALTILLO       SUNNY     66  43  42 CALM      30.20F
CD. VICTORIA   SUNNY     72  45  37 MISG      30.05F

WESTERN MEXICO

CITY           SKY/WX    TMP DP  RH WIND       PRES   REMARKS
AGUASCALIENTES MOSUNNY   61  12  15 N3        30.29F
COLIMA         SUNNY     77  63  61 NE6       30.09F
DEL BAJIO      SUNNY     64  30  27 CALM      30.32S
GUADALAJARA    SUNNY     64  21  19 N5        30.22F
MANZANILLO       N/A    N/A N/A N/A MISG        N/A
P. VALLARTA    SUNNY     81  63  54 CALM        N/A
URUAPAN        SUNNY     68  48  49 CALM      30.18F
ZACATECAS      SUNNY     57  18  21 CALM      30.28

CENTRAL MEXICO

CITY           SKY/WX    TMP DP  RH WIND       PRES   REMARKS
CUERNAVACA     SUNNY     72  39  30 SE3       30.16F
MEXICO CITY    SUNNY     59  28  31 E5        30.32F
MORELIA        SUNNY     63  34  34 NW2       30.26F
POZA RICA      SUNNY     73  63  68 CALM      30.13F
PUEBLA         SUNNY     63  28  27 N3        30.30F
QUERETARO      SUNNY     61  28  29 CALM      30.30
S. LUIS POTOSI SUNNY     57  19  23 S5        30.25
TAMPICO        SUNNY     70  55  60 MISG      30.07
TOLUCA         SUNNY     57  27  30 NW5       30.35F HAZE

SOUTHERN MEXICO

CITY           SKY/WX    TMP DP  RH WIND       PRES   REMARKS
ACAPULCO       MOSUNNY   84  70  61 E3        29.93F
B. DE HUATULCO SUNNY    N/A N/A N/A CALM      29.97F
OAXACA         MOSUNNY   64  46  52 CALM      30.25F
P. ESCONDIDO   MOSUNNY   82  66  57 E9        30.04
VERACRUZ       SUNNY     77  59  53 CALM      30.08
ZIHUATANEJO    SUNNY     88  70  55 S5        29.93  HX  92

YUCATAN PENINSULA

CITY           SKY/WX    TMP DP  RH WIND       PRES   REMARKS
CAMPECHE       MOSUNNY   81  66  61 E6        30.01S
CANCUN         PTSUNNY   79  68  69 W9        29.99F
CHETUMAL       MOSUNNY   79  64  61 N9        30.02F
CD. DEL CARMEN PTSUNNY  N/A N/A N/A N9        30.06F
COZUMEL        MOSUNNY   79  66  65 NW12      29.98F
MERIDA         PTSUNNY   81  57  44 W8        30.02F
MINATITLAN     MOSUNNY   77  70  78 S6        30.05
TAPACHULA      SUNNY     88  70  55 W6        29.89F HX  92
TUX. GUTIERREZ MOSUNNY   73  57  56 E5        30.08F
VILLAHERMOSA   CLOUDY    70  70 100 NE6       30.10F

CENTRAL AMERICA

CITY           SKY/WX    TMP DP  RH WIND       PRES   REMARKS
BELIZE CITY    MOSUNNY   77  68  73 NW7       30.02F

CARIBBEAN

CITY           SKY/WX    TMP DP  RH WIND       PRES   REMARKS
ARUBA          MOSUNNY   88  75  66 E14       29.85F HX  97
CURACAO        MOSUNNY   86  73  66 E15       29.86F HX  93
KINGSTON       PTSUNNY   82  75  78 SE14      29.89F
NASSAU         PTSUNNY   86  75  70 S14       29.92F HX  95
SAN JUAN       MOSUNNY   88  81  79 NE18      29.91F HX 105
SANTO DOMINGO  MOSUNNY   86  75  70 SE5       29.89F HX  95
ST. KITTS      PTSUNNY   84  75  74 E6        29.94  HX  92
ST. MAARTEN    PTSUNNY   82  73  74 E5        29.94
ST. THOMAS       N/A    N/A N/A N/A MISG      29.92

$$





USA.gov is the U.S. government's official web portal to all federal, state and local government web resources and services.